Volver al catálogo

STARLINK-37820

ActivoComunicacionesSSO
NORAD 69423·PAYLOAD·🇺🇸 United States

Lanzado Jun 7, 2026 desde Vandenberg Space Force Base

Loading…

Próximos Pases (próximas 24 horas)

TLE

ActualizadoSource: CelesTrak SupGP

Época: Sep 14, 2026, 15:58 UTC

1 69423C 26126D   26257.66576389 -.00023512  00000+0 -72978-3 0  2570
2 69423  97.2842 118.9138 0001933  92.3893 339.8458 15.33454227    16

Sigue STARLINK-37820 en tiempo real con AllMySat

Download on the App Store